Flag for U.S.A. Weather past 2 weeks in Portland, Oregon, U.S.A.

Now
54 °F

Partly sunny.


Feels Like: 54 °F
Forecast: 47 / 53 °F
Wind: 3 mph from Northeast

Location: Portland International Airport

Current Time: Dec 22, 2014 at 2:29:32 PM

Latest Report: Dec 22, 2014 at 1:53 PM


Visibility: 10 mi

Pressure: 30.36 "Hg

Humidity: 74%

Dew point: 46 °F

Location of PortlandLocation

Historic Weather in Portland — Graph

°F

Portland temperature yesterday

Maximum temperature yesterday: 58 °F (at 12:53 AM)
Minimum temperature yesterday: 51 °F (at 10:53 PM)
Average temperature yesterday: 54 °F

Past Weeks' High & Low Weather Summary

 TemperatureHumidityPressure
High63 °F (Dec 11, 2:53 PM)100% (Dec 9, 9:53 AM)30.39 "Hg (Dec 9, 9:53 AM)
Low37 °F (Dec 14, 4:53 AM)48% (Dec 11, 2:53 PM)29.13 "Hg (Dec 11, 7:53 AM)
Average47 °F84%29.89 "Hg
* Reported Dec 7 12:53 PM — Dec 22 12:53 PM, Portland, Weather by CustomWeather, © 2014

Note: Actual official high and low records may vary slightly from our data, if they occured in-between our weather recording intervals... More about our weather records

Advertising

Portland weather history for previous 24 hours

 ConditionsComfort  
Time TempWeatherWind HumidityBarometerVisibility
12:53 PM
Dec 22
54 °FPartly sunny.3 mph80%30.36 "Hg10 mi
11:53 AM52 °FScattered clouds.5 mph86%30.37 "Hg10 mi
11:00 AM50 °FFog.6 mph96%30.39 "Hg3 mi
10:01 AM49 °FFog.No wind100%30.39 "Hg1 mi
9:02 AM48 °FFog.3 mph100%30.38 "Hg1 mi
8:53 AM47 °FFog.5 mph100%30.37 "Hg1 mi
7:53 AM47 °FBroken clouds.No wind100%30.34 "Hg7 mi
6:53 AM47 °FPassing clouds.3 mph97%30.32 "Hg7 mi
5:53 AM48 °FLow clouds.No wind100%30.29 "Hg9 mi
4:53 AM48 °FMostly cloudy.5 mph100%30.28 "Hg8 mi
3:53 AM49 °FFog.3 mph100%30.27 "Hg6 mi
2:53 AM50 °FOvercast.3 mph96%30.24 "Hg10 mi
1:53 AM50 °FMostly cloudy.No wind96%30.21 "Hg10 mi
12:53 AM50 °FLight rain. Fog.No wind100%30.20 "Hg4 mi
11:53 PM
Dec 21
51 °FLight rain. Fog.No wind96%30.18 "Hg4 mi
10:53 PM51 °FLight rain. Mostly cloudy.No wind96%30.17 "Hg10 mi
9:53 PM52 °FLight rain. Overcast.9 mph93%30.16 "Hg7 mi
8:53 PM52 °FMostly cloudy.3 mph89%30.16 "Hg10 mi
7:53 PM52 °FMostly cloudy.No wind93%30.16 "Hg10 mi
6:53 PM53 °FMostly cloudy.5 mph89%30.16 "Hg10 mi
5:53 PM53 °FLight rain. Mostly cloudy.9 mph89%30.15 "Hg9 mi
4:53 PM53 °FLight rain. Mostly cloudy.3 mph93%30.13 "Hg10 mi
3:53 PM54 °FLight rain. Mostly cloudy.No wind86%30.11 "Hg8 mi
2:53 PM54 °FMostly cloudy.5 mph86%30.09 "Hg10 mi
Weather by CustomWeather, © 2014

See weather overviewHow to use our weather pages